Weather History for Fort Knox, KY

Change the Weather History Date:

Sunday, February 10, 2013

  Actual Average Record
Temperature  
Mean Temperature 46 °F -  
Max Temperature 57 °F 44 °F 69 °F (1999)
Min Temperature 36 °F 27 °F 1 °F (2011)
Degree Days  
Heating Degree Days 18    
Moisture  
Dew Point 41 °F    
Average Humidity 78    
Maximum Humidity 100    
Minimum Humidity 46    
Precipitation  
Precipitation 0.18 in - - ()
Sea Level Pressure  
Sea Level Pressure 29.95 in    
Wind  
Wind Speed 11 mph (SSE)    
Max Wind Speed 24 mph    
Max Gust Speed 43 mph    
Visibility 10 miles    
Events Rain , Thunderstorm    
Averages and records for this station are not official NWS values.
T = Trace of Precipitation, MM = Missing Value Source: NWS Daily Summary

Daily Weather History Graph

Daily Weather History Graph

Search for Another Location

Airport:

Trip Planner

Search our weather history database for the weather conditions in past years. The results will help you decide how hot, cold, wet, or windy it might be!

Date:

Astronomy

Feb. 10, 2013 Rise Set
Actual Time 7:39 AM EST 6:17 PM EST
Civil Twilight 7:11 AM EST 6:44 PM EST
Nautical Twilight 6:40 AM EST 7:15 PM EST
Astronomical Twilight 6:10 AM EST 7:46 PM EST
Moon 7:29 AM EST (2/10) 7:05 PM EST (2/10)
Length of Visible Light 11h 32m
Length of Day
10h 38m
New Moon, 0% of the Moon is Illuminated
Feb 10
New Moon
Feb 17
First Quarter
Feb 25
Full
Mar 4
Last Quarter
Mar 11
New

Hourly Weather History & Observations

Time (EST) Temp. Windchill Dew Point Humidity Pressure Visibility Wind Dir Wind Speed Gust Speed Precip Events Conditions
12:55 AM 36.9 °F 30.1 °F 24.1 °F 60% 30.16 in 10.0 mi East 9.2 mph - N/A   Overcast
1:55 AM 37.0 °F 31.0 °F 24.4 °F 60% 30.15 in 10.0 mi East 8.1 mph - N/A   Mostly Cloudy
2:55 AM 38.3 °F 33.9 °F 24.4 °F 57% 30.13 in 10.0 mi East 5.8 mph - N/A   Partly Cloudy
3:55 AM 37.2 °F 32.6 °F 25.3 °F 62% 30.12 in 10.0 mi East 5.8 mph - N/A   Mostly Cloudy
4:55 AM 38.1 °F 33.7 °F 25.0 °F 59% 30.12 in 10.0 mi ENE 5.8 mph - N/A   Scattered Clouds
5:42 AM 39.2 °F 35.0 °F 26.6 °F 61% 30.12 in 10.0 mi ESE 5.8 mph - N/A   Partly Cloudy
5:55 AM 41.0 °F 33.9 °F 29.5 °F 64% 30.12 in 10.0 mi South 12.7 mph - 0.00 in   Mostly Cloudy
6:36 AM 42.8 °F 37.5 °F 35.6 °F 76% 30.12 in 10.0 mi South 9.2 mph - N/A   Overcast
6:43 AM 42.8 °F 38.6 °F 37.4 °F 81% 30.12 in 10.0 mi South 6.9 mph - N/A   Overcast
6:53 AM 42.8 °F 39.3 °F 37.4 °F 81% 30.12 in 10.0 mi South 5.8 mph - N/A   Overcast
6:55 AM 42.6 °F 38.4 °F 37.0 °F 81% 30.12 in 10.0 mi South 6.9 mph - 0.01 in   Overcast
6:56 AM 42.8 °F 38.6 °F 37.4 °F 81% 30.12 in 10.0 mi SSE 6.9 mph - N/A   Overcast
7:55 AM 41.9 °F 39.0 °F 38.3 °F 87% 30.10 in 10.0 mi East 4.6 mph - 0.02 in   Mostly Cloudy
8:55 AM 41.7 °F 36.7 °F 37.0 °F 83% 30.09 in 10.0 mi ESE 8.1 mph - 0.00 in   Overcast
9:55 AM 47.5 °F - 34.7 °F 61% 30.07 in 10.0 mi SE 13.8 mph - N/A   Overcast
10:55 AM 51.8 °F - 35.4 °F 54% 30.03 in 10.0 mi SSE 11.5 mph - 0.00 in   Partly Cloudy
11:55 AM 55.0 °F - 36.1 °F 49% 30.02 in 10.0 mi SSE 16.1 mph 26.5 mph N/A   Mostly Cloudy
12:55 PM 56.5 °F - 36.1 °F 47% 29.94 in 10.0 mi SSE 16.1 mph - N/A   Partly Cloudy
1:55 PM 57.4 °F - 36.9 °F 46% 29.92 in 10.0 mi SSE 21.9 mph 29.9 mph N/A   Partly Cloudy
2:10 PM 57.2 °F - 37.4 °F 48% 29.92 in 10.0 mi South 17.3 mph 29.9 mph N/A Thunderstorm Thunderstorm
2:23 PM 57.2 °F - 39.2 °F 51% 29.94 in 10.0 mi SSW 12.7 mph - N/A Rain , Thunderstorm Light Thunderstorms and Rain
2:29 PM 55.4 °F - 41.0 °F 58% 29.95 in 2.0 mi South 24.2 mph 28.8 mph N/A Rain Light Rain Showers
2:55 PM 50.5 °F - 45.5 °F 83% 29.96 in 4.0 mi SSW 6.9 mph - 0.06 in Rain Light Rain
3:55 PM 49.6 °F - 46.9 °F 90% 29.89 in 5.0 mi SE 16.1 mph - 0.08 in Rain Light Rain
4:21 PM 50.0 °F - 46.4 °F 87% 29.83 in 7.0 mi SE 17.3 mph 27.6 mph N/A   Overcast
4:29 PM 50.0 °F - 46.4 °F 87% 29.85 in 10.0 mi SE 15.0 mph 25.3 mph N/A   Overcast
4:33 PM 50.0 °F - 46.4 °F 87% 29.84 in 10.0 mi SE 21.9 mph 26.5 mph N/A Rain Light Rain
4:55 PM 48.9 °F - 45.7 °F 89% 29.82 in 10.0 mi SE 23.0 mph 42.6 mph 0.01 in Rain Light Rain
5:03 PM 48.2 °F - 46.4 °F 93% 29.83 in 10.0 mi SSE 21.9 mph 28.8 mph N/A   Overcast
5:39 PM 48.2 °F - 44.6 °F 87% 29.86 in 10.0 mi South 18.4 mph 32.2 mph N/A   Overcast
5:55 PM 49.1 °F - 45.1 °F 86% 29.86 in 10.0 mi South 19.6 mph 28.8 mph 0.00 in   Overcast
6:34 PM 50.0 °F - 46.4 °F 87% 29.84 in 10.0 mi SSE 17.3 mph - N/A   Overcast
6:55 PM 49.5 °F - 45.7 °F 87% 29.83 in 10.0 mi SSE 17.3 mph 28.8 mph N/A   Overcast
7:55 PM 50.7 °F - 46.8 °F 86% 29.83 in 10.0 mi South 16.1 mph 29.9 mph N/A   Overcast
8:55 PM 51.4 °F - 47.5 °F 86% 29.83 in 10.0 mi South 12.7 mph 19.6 mph N/A   Overcast
9:39 PM 51.8 °F - 48.2 °F 88% 29.83 in 10.0 mi South 13.8 mph - N/A   Overcast
9:55 PM 52.0 °F - 48.7 °F 89% 29.82 in 10.0 mi South 15.0 mph 24.2 mph N/A   Overcast
10:27 PM 51.8 °F - 50.0 °F 94% 29.83 in 10.0 mi South 11.5 mph - N/A   Overcast
10:29 PM 51.8 °F - 50.0 °F 94% 29.83 in 10.0 mi South 13.8 mph - N/A   Overcast
10:31 PM 51.8 °F - 50.0 °F 94% 29.83 in 10.0 mi South 12.7 mph - N/A   Overcast
10:55 PM 51.3 °F - 49.8 °F 95% 29.83 in 10.0 mi South 12.7 mph - N/A   Overcast
11:01 PM 51.8 °F - 50.0 °F 94% 29.83 in 9.0 mi South 12.7 mph - N/A Rain Light Rain
11:04 PM 51.8 °F - 50.0 °F 94% 29.83 in 9.0 mi South 11.5 mph - N/A Rain Light Rain
11:29 PM 51.8 °F - 50.0 °F 94% 29.83 in 10.0 mi SSW 6.9 mph - N/A   Overcast
11:47 PM 51.8 °F - 51.8 °F 100% 29.83 in 10.0 mi SSW 9.2 mph - N/A   Overcast
11:55 PM 52.3 °F - 51.4 °F 97% 29.83 in 10.0 mi SSW 10.4 mph - 0.00 in   Overcast